Starlink 31080

operational
NORAD ID: 58603 Int'l Des: 2023-200 Owner: SPXS Country: US Constellation: starlink
LEOCIRCULAR

Starlink 31080について

説明を読み込み中...

リアルタイム位置

3D地球を読み込み中...

次回通過

高度履歴

Altitude vs Time

uPlot chart will show altitude changes over time

軌道要素

1 58603U 23200Q 26095.49281142 .00001510 00000-0 65962-4 0 9991
2 58603 43.0013 17.1631 0000650 263.9169 96.1608 15.26734714127528
Epoch: Apr 5, 2026 • Age: 7 hours

現在のステータス

高度 488.2 km
速度 7.63 km/s
衛星直下点 38.81°N, 23.39°E
打ち上げ日 Dec 19, 2023
運用期間 2.2 years
タイプ internet

技術仕様

分類 Payload
質量 730.00 kg
乾燥質量 700.00 kg
総質量 730.00 kg
長さ 0.30 m
直径 4.10 m
スパン 29.00 m
形状 Box + pan
製造者 SPXS
バスタイプ Starlink V2M
フェーズステータス In Orbit
所有者/国 SPXS/US

大規模コンステレーション

Loading constellations...